period_start,C,m1,H,J0,J1,J2,J3,J4,J5,JA,JB,JC,JD,JJ,JK,JN,#
2018-09-11 00:02:29,0.01,0.66,0.00,17.57,21.24,24.35,14.19,48.06,1015.39,2050.78,3018.97,2759.12,3162.64,599.83,606.29,49.89,0000 0000 0000 0000 000000
2018-09-11 00:07:30,0.03,0.66,0.00,17.57,21.24,24.33,14.28,48.16,1015.54,2050.86,3018.66,2759.07,3162.32,599.99,606.54,49.94,0000 0000 0000 0000 000000
2018-09-11 00:12:32,0.01,0.66,0.00,17.57,21.24,24.34,14.26,48.19,1015.59,2050.87,3018.05,2759.00,3162.01,599.43,606.09,49.99,0000 0000 0000 0000 000000
2018-09-11 00:17:32,0.00,0.66,0.00,17.57,21.22,24.34,14.31,48.09,1015.62,2050.93,3018.02,2759.00,3162.00,600.61,607.07,50.04,0000 0000 0000 0000 000000
2018-09-11 00:22:34,-0.00,0.66,0.00,17.57,21.22,24.39,14.14,48.06,1015.64,2050.95,3017.99,2759.00,3161.99,599.44,606.14,50.09,0000 0000 0000 0000 000000
2018-09-11 00:27:35,0.00,0.66,0.00,17.57,21.22,24.32,14.21,48.15,1015.64,2050.95,3017.99,2758.98,3161.96,599.60,606.13,50.14,0000 0000 0000 0000 000000
2018-09-11 00:32:36,0.00,0.66,0.00,17.57,21.22,24.33,14.20,48.07,1015.64,2050.97,3017.98,2758.97,3161.87,599.70,606.16,50.19,0000 0000 0000 0000 000000
2018-09-11 00:37:37,0.01,0.66,0.00,17.57,21.22,24.32,14.20,48.18,1015.64,2050.97,3017.89,2758.95,3161.38,600.01,606.52,50.24,0000 0000 0000 0000 000000
2018-09-11 00:42:38,0.02,0.66,0.00,17.58,21.21,24.29,14.21,48.08,1015.64,2050.96,3017.31,2758.92,3161.07,599.74,606.32,50.29,0000 0000 0000 0000 000000
2018-09-11 00:47:40,0.00,0.67,0.00,17.59,21.20,24.30,14.20,48.17,1015.64,2050.98,3017.07,2758.86,3161.03,599.53,606.09,50.34,0000 0000 0000 0000 000000
2018-09-11 00:52:41,0.01,0.67,0.00,17.59,21.20,24.27,14.30,48.09,1015.67,2050.98,3017.01,2758.62,3161.00,600.23,606.76,50.39,0000 0000 0000 0000 000000
2018-09-11 00:57:42,0.00,0.67,0.00,17.59,21.19,24.32,14.21,48.18,1015.66,2050.98,3017.00,2758.35,3161.00,599.89,606.44,50.44,0000 0000 0000 0000 000000
2018-09-11 01:02:43,0.00,0.67,0.00,17.59,21.19,24.27,14.19,48.06,1015.66,2050.96,3017.00,2758.12,3161.00,600.05,606.60,50.49,0000 0000 0000 0000 000000
2018-09-11 01:07:44,0.00,0.67,0.00,17.59,21.19,24.26,14.23,48.18,1015.66,2050.96,3016.99,2758.09,3160.98,600.28,606.83,50.54,0000 0000 0000 0000 000000
2018-09-11 01:12:45,0.00,0.67,0.00,17.60,21.19,24.26,14.26,48.13,1015.72,2050.98,3016.97,2758.04,3160.97,600.18,606.74,50.59,0000 0000 0000 0000 000000
2018-09-11 01:17:47,0.00,0.67,0.00,17.62,21.20,24.26,14.17,48.11,1015.70,2050.99,3016.90,2758.02,3160.96,599.83,606.38,50.64,0000 0000 0000 0000 000000
2018-09-11 01:22:48,0.00,0.67,0.00,17.62,21.20,24.29,14.21,48.15,1015.76,2050.98,3016.84,2758.02,3160.93,600.22,606.74,50.70,0000 0000 0000 0000 000000
2018-09-11 01:27:49,0.01,0.67,0.00,17.64,21.21,24.24,14.22,48.16,1015.97,2050.98,3016.31,2758.02,3160.69,599.67,606.37,50.75,0000 0000 0000 0000 000000
2018-09-11 01:32:50,0.00,0.67,0.00,17.65,21.22,24.25,14.22,48.17,1016.02,2050.98,3016.18,2758.00,3160.33,600.09,606.81,50.80,0000 0000 0000 0000 000000
2018-09-11 01:37:52,0.01,0.67,0.00,17.67,21.22,24.25,14.24,48.16,1016.07,2050.98,3016.05,2758.01,3160.09,600.15,606.81,50.85,0000 0000 0000 0000 000000
2018-09-11 01:42:53,-0.00,0.67,0.00,17.68,21.22,24.26,14.18,48.19,1016.13,2050.95,3016.01,2758.00,3160.03,599.73,606.41,50.90,0000 0000 0000 0000 000000
2018-09-11 01:47:54,0.00,0.67,0.00,17.69,21.22,24.26,14.25,48.20,1016.10,2050.96,3016.01,2758.00,3160.00,600.01,606.67,50.95,0000 0000 0000 0000 000000
2018-09-11 01:52:55,0.00,0.67,0.00,17.69,21.22,24.23,14.20,48.30,1016.13,2050.97,3015.99,2758.00,3160.00,599.68,606.45,51.00,0000 0000 0000 0000 000000
2018-09-11 01:57:57,-0.01,0.67,0.00,17.72,21.22,24.21,14.26,48.17,1016.13,2050.94,3015.97,2757.97,3159.98,600.60,607.12,51.05,0000 0000 0000 0000 000000
2018-09-11 02:02:58,0.00,0.67,0.00,17.72,21.24,24.19,14.17,48.21,1016.14,2050.88,3015.97,2757.97,3159.97,599.69,606.37,51.10,0000 0000 0000 0000 000000
2018-09-11 02:07:59,0.01,0.67,0.00,17.74,21.24,24.21,14.24,48.21,1016.14,2050.93,3015.94,2757.96,3159.97,600.54,607.14,51.15,0000 0000 0000 0000 000000
2018-09-11 02:13:00,0.00,0.67,0.00,17.74,21.24,24.23,14.18,48.24,1016.14,2050.88,3015.56,2757.87,3159.84,599.61,606.18,51.20,0000 0000 0000 0000 000000
2018-09-11 02:18:01,0.01,0.67,0.00,17.77,21.24,24.23,14.16,48.18,1016.24,2050.73,3015.07,2757.36,3159.34,600.00,606.42,51.25,0000 0000 0000 0000 000000
2018-09-11 02:23:02,0.01,0.67,0.00,17.78,21.26,24.21,14.20,48.16,1016.30,2050.64,3015.01,2757.12,3159.07,600.11,606.62,51.30,0000 0000 0000 0000 000000
2018-09-11 02:28:04,-0.02,0.67,0.00,17.78,21.27,24.18,14.19,48.24,1016.42,2050.64,3015.00,2757.05,3159.03,599.78,606.44,51.35,0000 0000 0000 0000 000000
2018-09-11 02:33:05,0.02,0.67,0.00,17.79,21.27,24.14,14.20,48.16,1016.51,2050.75,3015.00,2757.05,3159.02,599.90,606.61,51.40,0000 0000 0000 0000 000000
2018-09-11 02:38:06,-0.01,0.67,0.00,17.80,21.27,24.17,14.20,48.01,1016.54,2050.73,3014.97,2757.01,3159.00,600.33,606.92,51.45,0000 0000 0000 0000 000000
2018-09-11 02:43:07,-0.04,0.67,0.00,17.82,21.29,24.17,14.26,48.06,1016.42,2050.29,3014.97,2757.00,3159.00,600.23,606.80,51.50,0000 0000 0000 0000 000000
2018-09-11 02:48:09,0.01,0.67,0.00,17.82,21.29,24.21,14.22,48.15,1016.49,2050.19,3014.91,2757.00,3158.99,600.00,606.64,51.55,0000 0000 0000 0000 000000
2018-09-11 02:53:10,-0.00,0.67,0.00,17.84,21.30,24.24,14.14,48.18,1016.59,2050.16,3014.78,2757.00,3158.98,599.78,606.35,51.60,0000 0000 0000 0000 000000
2018-09-11 02:58:11,0.01,0.67,0.00,17.84,21.31,24.24,14.19,48.13,1016.61,2050.21,3014.26,2756.99,3158.96,600.36,606.95,51.65,0000 0000 0000 0000 000000
2018-09-11 03:03:13,-0.00,0.67,0.00,17.85,21.32,24.21,14.20,48.08,1016.59,2050.15,3014.09,2756.98,3158.75,599.72,606.29,51.70,0000 0000 0000 0000 000000
2018-09-11 03:08:14,0.00,0.67,0.00,17.85,21.32,24.20,14.22,48.10,1016.61,2050.06,3014.03,2756.98,3158.35,600.08,606.54,51.76,0000 0000 0000 0000 000000
2018-09-11 03:13:15,0.00,0.67,0.00,17.87,21.34,24.23,14.16,48.14,1016.60,2050.07,3014.01,2756.96,3158.10,599.82,606.21,51.81,0000 0000 0000 0000 000000
2018-09-11 03:18:16,0.00,0.67,0.00,17.89,21.34,24.24,14.15,48.07,1016.59,2050.05,3014.00,2756.83,3158.05,599.60,606.04,51.86,0000 0000 0000 0000 000000
2018-09-11 03:23:18,0.01,0.67,0.00,17.88,21.35,24.26,14.15,48.18,1016.62,2050.02,3014.00,2756.42,3158.01,599.82,606.36,51.91,0000 0000 0000 0000 000000
2018-09-11 03:28:19,-0.00,0.67,0.00,17.90,21.37,24.22,14.24,48.13,1016.62,2050.03,3013.99,2756.32,3158.00,599.95,606.50,51.96,0000 0000 0000 0000 000000
2018-09-11 03:33:20,-0.00,0.67,0.00,17.91,21.37,24.23,14.22,48.18,1016.62,2050.02,3013.99,2756.37,3158.00,600.30,606.76,52.01,0000 0000 0000 0000 000000
2018-09-11 03:38:22,0.00,0.67,0.00,17.93,21.38,24.26,14.18,48.13,1016.61,2050.01,3013.99,2756.21,3158.00,599.80,606.20,52.06,0000 0000 0000 0000 000000
2018-09-11 03:43:23,0.00,0.67,0.00,17.94,21.39,24.21,14.26,48.22,1016.62,2050.01,3013.98,2756.03,3157.99,600.22,606.56,52.11,0000 0000 0000 0000 000000
2018-09-11 03:48:24,0.00,0.67,0.00,17.92,21.39,24.25,14.16,48.26,1016.62,2050.01,3013.93,2756.02,3157.98,600.22,606.62,52.16,0000 0000 0000 0000 000000
2018-09-11 03:53:26,0.01,0.67,0.00,17.93,21.41,24.29,14.13,48.19,1016.62,2050.01,3013.77,2756.03,3157.96,599.70,606.14,52.21,0000 0000 0000 0000 000000
2018-09-11 03:58:27,0.01,0.67,0.00,17.97,21.42,24.28,14.15,48.13,1016.64,2050.00,3013.23,2756.00,3157.72,599.66,605.97,52.26,0000 0000 0000 0000 000000
2018-09-11 04:03:29,0.00,0.67,0.00,17.99,21.42,24.32,14.20,47.94,1016.80,2050.00,3013.00,2756.00,3157.28,600.27,606.58,52.31,0000 0000 0000 0000 000000
2018-09-11 04:08:30,0.00,0.67,0.00,18.02,21.44,24.28,14.18,48.09,1016.85,2050.00,3013.00,2755.99,3157.11,599.88,606.22,52.36,0000 0000 0000 0000 000000
2018-09-11 04:13:32,0.00,0.67,0.00,18.02,21.44,24.31,14.23,48.08,1017.00,2050.00,3013.00,2755.96,3157.02,600.12,606.65,52.41,0000 0000 0000 0000 000000
2018-09-11 04:18:33,0.00,0.67,0.00,18.03,21.47,24.31,14.17,48.07,1017.10,2050.00,3012.98,2755.97,3157.00,600.19,606.71,52.46,0000 0000 0000 0000 000000
2018-09-11 04:23:34,0.00,0.67,0.00,18.06,21.47,24.31,14.13,47.98,1017.08,2050.00,3012.96,2755.80,3157.00,599.66,606.02,52.51,0000 0000 0000 0000 000000
2018-09-11 04:28:35,0.01,0.67,0.00,18.07,21.49,24.33,14.17,48.10,1017.10,2049.99,3012.96,2755.45,3157.00,599.78,606.31,52.56,0000 0000 0000 0000 000000
2018-09-11 04:33:36,0.02,0.67,0.00,18.09,21.50,24.33,14.19,48.02,1017.11,2049.99,3012.70,2755.18,3156.99,600.07,606.51,52.61,0000 0000 0000 0000 000000
2018-09-11 04:38:37,-0.00,0.67,0.00,18.11,21.52,24.34,14.15,48.08,1017.13,2049.99,3012.73,2755.02,3156.93,599.92,606.29,52.67,0000 0000 0000 0000 000000
2018-09-11 04:43:39,0.01,0.67,0.00,18.12,21.53,24.32,14.19,47.96,1017.15,2049.98,3012.60,2755.03,3156.73,600.15,606.36,52.72,0000 0000 0000 0000 000000
2018-09-11 04:48:40,-0.00,0.67,0.00,18.14,21.54,24.32,14.25,48.05,1017.27,2049.96,3012.70,2755.02,3156.47,600.08,606.40,52.77,0000 0000 0000 0000 000000
2018-09-11 04:53:42,-0.01,0.67,0.00,18.16,21.57,24.34,14.29,48.00,1017.38,2049.85,3012.46,2755.00,3156.20,600.14,606.43,52.82,0000 0000 0000 0000 000000
2018-09-11 04:58:43,0.00,0.67,0.00,18.19,21.58,24.34,14.13,48.09,1017.46,2049.55,3012.14,2754.63,3155.96,599.66,606.04,52.87,0000 0000 0000 0000 000000
2018-09-11 05:03:44,0.02,0.67,0.00,18.19,21.59,24.35,14.19,48.14,1017.58,2049.52,3011.99,2754.07,3155.48,600.18,606.72,52.92,0000 0000 0000 0000 000000
2018-09-11 05:08:46,0.00,0.68,0.00,18.23,21.61,24.36,14.23,48.02,1017.59,2049.45,3011.93,2754.02,3155.20,599.89,606.36,52.97,0000 0000 0000 0000 000000
2018-09-11 05:13:47,-0.01,0.68,0.00,18.24,21.63,24.36,14.10,47.87,1017.59,2049.34,3011.23,2753.99,3155.03,599.80,606.15,53.02,0000 0000 0000 0000 000000
2018-09-11 05:18:48,-0.01,0.67,0.00,18.24,21.64,24.41,14.17,48.06,1017.59,2049.06,3011.01,2753.99,3155.00,599.89,606.26,53.07,0000 0000 0000 0000 000000
2018-09-11 05:23:49,0.00,0.67,0.00,18.27,21.66,24.42,14.10,47.87,1017.59,2049.04,3011.01,2753.97,3154.99,600.06,606.24,53.12,0000 0000 0000 0000 000000
2018-09-11 05:28:50,0.00,0.67,0.00,18.29,21.67,24.44,14.14,47.88,1017.59,2049.01,3011.00,2753.81,3154.96,599.97,606.14,53.17,0000 0000 0000 0000 000000
2018-09-11 05:33:51,0.01,0.67,0.00,18.30,21.69,24.40,14.18,47.88,1017.60,2049.01,3010.99,2753.38,3154.77,599.91,606.27,53.22,0000 0000 0000 0000 000000
2018-09-11 05:38:52,0.01,0.68,0.00,18.33,21.71,24.45,14.12,47.82,1017.63,2049.01,3010.95,2753.12,3154.24,599.94,606.04,53.27,0000 0000 0000 0000 000000
2018-09-11 05:43:53,0.01,0.68,0.00,18.35,21.72,24.48,14.18,47.87,1017.77,2049.00,3010.69,2753.02,3154.03,599.87,606.17,53.32,0000 0000 0000 0000 000000
2018-09-11 05:48:55,0.00,0.68,0.00,18.37,21.74,24.48,14.11,47.86,1017.69,2049.00,3010.40,2753.00,3154.00,599.94,606.08,53.37,0000 0000 0000 0000 000000
2018-09-11 05:53:56,0.00,0.68,0.00,18.38,21.76,24.49,14.13,47.88,1017.87,2049.00,3010.12,2753.00,3154.00,599.95,606.15,53.42,0000 0000 0000 0000 000000
2018-09-11 05:58:57,0.00,0.68,0.00,18.41,21.77,24.50,14.13,47.92,1018.05,2048.98,3010.02,2752.99,3153.96,599.87,606.15,53.47,0000 0000 0000 0000 000000
2018-09-11 06:03:58,0.01,0.68,0.00,18.43,21.79,24.51,14.20,47.92,1017.99,2048.98,3010.00,2752.95,3153.59,600.25,606.43,53.52,0000 0000 0000 0000 000000
2018-09-11 06:09:00,0.04,0.68,0.00,18.45,21.80,24.57,14.14,47.82,1018.07,2048.98,3009.61,2752.30,3153.05,599.89,606.19,53.58,0000 0000 0000 0000 000000
2018-09-11 06:14:01,0.00,0.68,0.00,18.47,21.82,24.55,14.14,47.90,1018.08,2048.93,3009.20,2752.03,3153.00,599.49,605.70,53.63,0000 0000 0000 0000 000000
2018-09-11 06:19:02,-0.01,0.68,0.00,18.48,21.84,24.56,14.17,47.68,1018.12,2048.82,3009.03,2752.01,3152.99,600.02,606.24,53.68,0000 0000 0000 0000 000000
2018-09-11 06:24:04,-0.01,0.68,0.00,18.51,21.86,24.59,14.23,47.75,1018.20,2048.61,3009.00,2752.00,3152.86,600.25,606.43,53.73,0000 0000 0000 0000 000000
2018-09-11 06:29:05,-0.02,0.68,0.00,18.52,21.88,24.61,14.20,47.79,1018.19,2048.25,3008.98,2752.00,3152.35,600.26,606.32,53.78,0000 0000 0000 0000 000000
2018-09-11 06:34:07,-0.01,0.68,0.00,18.56,21.89,24.62,14.10,47.87,1018.25,2048.04,3008.96,2751.97,3152.03,599.73,605.85,53.83,0000 0000 0000 0000 000000
2018-09-11 06:39:08,0.00,0.68,0.00,18.57,21.91,24.62,14.13,47.85,1018.43,2048.02,3008.87,2751.94,3152.00,599.79,605.92,53.88,0000 0000 0000 0000 000000
2018-09-11 06:44:09,0.04,0.68,0.00,18.60,21.93,24.66,14.28,47.82,1018.55,2048.01,3008.09,2751.29,3151.98,600.38,606.45,53.93,0000 0000 0000 0000 000000
2018-09-11 06:49:10,0.01,0.68,0.00,18.63,21.95,24.67,14.19,47.77,1018.56,2048.00,3008.00,2751.02,3151.58,600.01,606.17,53.98,0000 0000 0000 0000 000000
2018-09-11 06:54:11,0.00,0.68,0.00,18.65,21.97,24.69,14.17,47.73,1018.56,2047.99,3007.95,2751.00,3151.03,600.12,606.08,54.03,0000 0000 0000 0000 000000
2018-09-11 06:59:12,-0.01,0.68,0.00,18.68,21.99,24.70,14.16,47.86,1018.57,2047.94,3007.96,2751.00,3151.00,600.22,606.24,54.08,0000 0000 0000 0000 000000
2018-09-11 07:04:13,-0.04,0.68,0.00,18.72,22.02,24.73,14.17,47.83,1018.57,2047.63,3007.93,2751.00,3150.97,600.01,606.02,54.13,0000 0000 0000 0000 000000
2018-09-11 07:09:15,0.07,0.68,0.00,18.72,22.04,24.75,14.15,47.84,1018.57,2047.65,3007.12,2750.73,3150.59,599.92,605.78,54.18,0000 0000 0000 0000 000000
2018-09-11 07:14:16,0.01,0.68,0.00,18.74,22.06,24.76,14.05,47.67,1018.58,2047.77,3006.98,2750.15,3150.04,599.95,605.82,54.23,0000 0000 0000 0000 000000
2018-09-11 07:19:17,-0.04,0.68,0.00,18.76,22.08,24.80,14.13,47.71,1018.64,2047.22,3006.78,2750.00,3149.88,599.82,605.70,54.28,0000 0000 0000 0000 000000
2018-09-11 07:24:18,0.02,0.68,0.00,18.79,22.09,24.80,14.13,47.78,1018.89,2047.04,3005.98,2749.75,3149.07,599.95,605.94,54.33,0000 0000 0000 0000 000000
2018-09-11 07:29:20,0.03,0.68,0.00,18.82,22.12,24.83,14.08,47.70,1019.02,2047.01,3005.34,2749.18,3149.00,599.79,605.64,54.38,0000 0000 0000 0000 000000
2018-09-11 07:34:21,0.00,0.68,0.00,18.86,22.13,24.85,14.10,47.77,1019.03,2047.00,3005.03,2749.02,3148.98,600.05,606.01,54.43,0000 0000 0000 0000 000000
2018-09-11 07:39:23,0.01,0.68,0.00,18.90,22.15,24.87,14.15,47.85,1019.06,2047.00,3005.00,2749.00,3148.46,600.10,605.97,54.49,0000 0000 0000 0000 000000
2018-09-11 07:44:24,0.01,0.68,0.00,18.94,22.17,24.88,14.12,47.66,1019.06,2047.00,3004.71,2748.98,3148.03,599.94,605.73,54.54,0000 0000 0000 0000 000000
2018-09-11 07:49:25,0.02,0.68,0.00,18.98,22.19,24.88,14.18,47.71,1019.06,2047.00,3004.02,2748.80,3147.93,600.15,605.86,54.59,0000 0000 0000 0000 000000
2018-09-11 07:54:26,0.05,0.69,0.00,19.01,22.22,24.92,14.13,47.67,1019.07,2047.00,3002.92,2748.03,3147.07,600.11,605.71,54.64,0000 0000 0000 0000 000000
2018-09-11 07:59:27,0.02,0.69,0.00,19.04,22.24,24.91,14.28,47.75,1019.10,2047.00,3002.19,2747.84,3146.98,600.14,605.73,54.69,0000 0000 0000 0000 000000
2018-09-11 08:04:28,0.02,0.69,0.00,19.06,22.26,24.93,14.13,47.61,1019.30,2047.00,3002.01,2747.28,3146.69,599.90,605.55,54.74,0000 0000 0000 0000 000000
2018-09-11 08:09:30,0.01,0.69,0.00,19.10,22.28,24.94,14.12,47.66,1019.39,2047.00,3001.98,2747.01,3146.07,599.89,605.39,54.79,0000 0000 0000 0000 000000
2018-09-11 08:14:31,0.00,0.69,0.00,19.15,22.31,24.96,14.15,47.64,1019.40,2047.00,3001.88,2747.00,3146.00,600.08,605.67,54.84,0000 0000 0000 0000 000000
2018-09-11 08:19:32,0.01,0.69,0.00,19.18,22.33,25.03,14.22,47.81,1019.47,2046.99,3001.16,2746.91,3145.93,600.49,606.02,54.89,0000 0000 0000 0000 000000
2018-09-11 08:24:34,0.04,0.69,0.00,19.20,22.36,25.05,14.07,47.67,1019.55,2046.98,3000.98,2746.22,3145.21,599.88,605.40,54.94,0000 0000 0000 0000 000000
2018-09-11 08:29:35,-0.00,0.69,0.00,19.23,22.39,25.10,14.13,47.58,1019.55,2046.90,3000.66,2746.00,3145.01,600.05,605.48,54.99,0000 0000 0000 0000 000000
2018-09-11 08:34:36,-0.01,0.69,0.00,19.24,22.41,25.14,14.10,47.59,1019.54,2046.74,3000.15,2746.00,3144.99,600.00,605.46,55.04,0000 0000 0000 0000 000000
2018-09-11 08:39:37,-0.03,0.69,0.00,19.24,22.44,25.16,14.23,47.67,1019.55,2046.31,3000.01,2745.99,3144.77,600.36,605.85,55.09,0000 0000 0000 0000 000000
2018-09-11 08:44:38,0.01,0.69,0.00,19.24,22.46,25.18,14.15,47.72,1019.55,2046.06,2999.99,2745.71,3144.10,599.97,605.33,55.14,0000 0000 0000 0000 000000
2018-09-11 08:49:39,0.03,0.69,0.00,19.26,22.48,25.21,14.18,47.74,1019.56,2046.02,2999.32,2745.06,3144.00,600.16,605.53,55.19,0000 0000 0000 0000 000000
2018-09-11 08:54:41,0.00,0.69,0.00,19.28,22.51,25.24,14.17,47.69,1019.56,2046.01,2999.00,2745.00,3143.91,600.28,605.59,55.24,0000 0000 0000 0000 000000
2018-09-11 08:59:42,0.01,0.69,0.00,19.31,22.53,25.25,14.15,47.62,1019.56,2046.00,2998.99,2744.98,3143.26,600.12,605.55,55.29,0000 0000 0000 0000 000000
2018-09-11 09:04:43,0.01,0.69,0.00,19.34,22.55,25.26,14.14,47.67,1019.63,2046.00,2998.81,2744.92,3143.02,600.00,605.29,55.35,0000 0000 0000 0000 000000
2018-09-11 09:09:44,0.02,0.70,0.00,19.36,22.58,25.29,14.15,47.54,1019.78,2045.99,2998.54,2744.60,3143.00,599.96,605.35,55.40,0000 0000 0000 0000 000000
2018-09-11 09:14:45,0.01,0.70,0.00,19.39,22.60,25.31,14.15,47.63,1019.92,2045.96,2998.06,2744.07,3142.97,600.04,605.46,55.45,0000 0000 0000 0000 000000
2018-09-11 09:19:46,0.00,0.70,0.00,19.42,22.63,25.33,14.27,47.69,1020.00,2045.87,2998.01,2744.01,3142.72,600.40,605.75,55.50,0000 0000 0000 0000 000000
2018-09-11 09:24:47,-0.03,0.70,0.00,19.43,22.65,25.35,14.15,47.63,1020.03,2045.48,2998.00,2744.00,3142.07,599.96,605.23,55.55,0000 0000 0000 0000 000000
2018-09-11 09:29:49,-0.03,0.69,0.00,19.44,22.68,25.38,14.19,47.67,1020.03,2045.10,2997.96,2743.99,3142.00,600.18,605.39,55.60,0000 0000 0000 0000 000000
2018-09-11 09:34:50,0.01,0.69,0.00,19.44,22.70,25.40,14.13,47.67,1020.03,2045.02,2997.31,2743.90,3141.98,599.98,605.30,55.65,0000 0000 0000 0000 000000
2018-09-11 09:39:51,0.03,0.70,0.00,19.44,22.72,25.44,14.12,47.63,1020.03,2045.00,2997.01,2743.33,3141.58,599.85,605.12,55.70,0000 0000 0000 0000 000000
2018-09-11 09:44:52,0.00,0.70,0.00,19.45,22.74,25.45,14.12,47.58,1020.03,2045.00,2996.99,2743.01,3141.04,599.91,605.18,55.75,0000 0000 0000 0000 000000
2018-09-11 09:49:54,0.00,0.70,0.00,19.47,22.77,25.48,14.17,47.66,1020.05,2044.99,2996.85,2743.00,3141.00,600.15,605.41,55.80,0000 0000 0000 0000 000000
2018-09-11 09:54:55,0.01,0.70,0.00,19.48,22.79,25.51,14.13,47.63,1020.08,2044.98,2996.16,2742.97,3140.93,600.03,605.30,55.85,0000 0000 0000 0000 000000
2018-09-11 09:59:55,0.00,0.70,0.00,19.49,22.81,25.52,14.10,47.62,1020.22,2044.97,2996.02,2742.94,3140.64,599.97,605.30,55.90,0000 0000 0000 0000 000000
2018-09-11 10:04:57,0.02,0.70,0.00,19.52,22.83,25.53,14.10,47.64,1020.40,2044.94,2996.00,2742.49,3140.08,599.82,605.23,55.95,0000 0000 0000 0000 000000
2018-09-11 10:09:58,-0.01,0.70,0.00,19.51,22.84,25.57,14.17,47.60,1020.50,2044.84,2995.99,2742.07,3140.00,599.90,605.43,56.00,0000 0000 0000 0000 000000
2018-09-11 10:14:59,-0.01,0.70,0.00,19.52,22.87,25.58,14.14,47.58,1020.52,2044.65,2995.89,2742.01,3140.00,599.83,605.45,56.05,0000 0000 0000 0000 000000
2018-09-11 10:20:01,-0.03,0.70,0.00,19.52,22.88,25.61,14.17,47.62,1020.52,2044.21,2995.30,2742.00,3139.96,599.69,605.27,56.10,0000 0000 0000 0000 000000
2018-09-11 10:25:02,0.00,0.70,0.00,19.50,22.89,25.66,14.09,47.52,1020.52,2044.07,2995.03,2742.00,3139.80,600.06,605.61,56.15,0000 0000 0000 0000 000000
2018-09-11 10:30:03,0.01,0.70,0.00,19.50,22.92,25.64,14.12,47.51,1020.52,2044.04,2995.00,2741.97,3139.15,599.94,605.36,56.20,0000 0000 0000 0000 000000
2018-09-11 10:35:04,-0.00,0.70,0.00,19.49,22.92,25.69,14.11,47.51,1020.52,2044.01,2994.99,2741.93,3139.01,599.98,605.48,56.25,0000 0000 0000 0000 000000
2018-09-11 10:40:05,0.00,0.70,0.00,19.49,22.94,25.68,14.11,47.64,1020.53,2044.01,2994.98,2741.62,3139.00,599.69,605.23,56.31,0000 0000 0000 0000 000000
2018-09-11 10:45:07,0.01,0.70,0.00,19.49,22.94,25.70,14.20,47.65,1020.54,2044.00,2994.95,2741.32,3139.00,600.02,605.48,56.36,0000 0000 0000 0000 000000
2018-09-11 10:50:08,0.02,0.70,0.00,19.47,22.96,25.72,14.16,47.54,1020.54,2044.00,2994.41,2741.07,3138.97,599.79,605.33,56.41,0000 0000 0000 0000 000000
2018-09-11 10:55:09,0.01,0.70,0.00,19.47,22.97,25.78,14.15,47.47,1020.54,2044.00,2994.04,2741.01,3138.73,599.80,605.34,56.46,0000 0000 0000 0000 000000
2018-09-11 11:00:11,0.01,0.70,0.00,19.46,22.97,25.81,14.19,47.56,1020.57,2043.99,2994.00,2741.00,3138.13,599.86,605.50,56.51,0000 0000 0000 0000 000000
2018-09-11 11:05:12,0.00,0.70,0.00,19.45,22.99,25.82,14.27,47.59,1020.70,2043.99,2993.99,2741.00,3138.02,600.12,605.86,56.56,0000 0000 0000 0000 000000
2018-09-11 11:10:13,-0.00,0.70,0.00,19.46,22.99,25.90,14.22,47.55,1020.81,2043.98,2993.98,2740.99,3138.00,599.96,605.55,56.61,0000 0000 0000 0000 000000
2018-09-11 11:15:15,0.00,0.70,0.00,19.46,22.99,25.93,14.18,47.61,1020.96,2043.97,2993.80,2740.97,3138.00,599.79,605.68,56.66,0000 0000 0000 0000 000000
2018-09-11 11:20:16,0.01,0.70,0.00,19.45,22.99,25.95,14.18,47.65,1021.00,2043.98,2993.40,2740.96,3138.00,600.23,606.11,56.71,0000 0000 0000 0000 000000
2018-09-11 11:25:17,0.01,0.70,0.00,19.44,23.00,25.97,14.14,47.63,1021.00,2043.98,2993.05,2740.83,3137.97,599.81,605.68,56.76,0000 0000 0000 0000 000000
2018-09-11 11:30:18,0.02,0.70,0.00,19.44,23.00,25.99,14.23,47.64,1021.01,2043.95,2993.00,2740.25,3137.58,600.13,605.78,56.81,0000 0000 0000 0000 000000
2018-09-11 11:35:19,0.01,0.70,0.00,19.44,23.01,26.00,14.21,47.64,1021.01,2043.93,2992.99,2740.06,3137.16,600.16,605.97,56.86,0000 0000 0000 0000 000000
2018-09-11 11:40:20,0.00,0.70,0.00,19.42,23.02,26.03,14.20,47.70,1021.01,2043.96,2992.99,2740.10,3137.07,600.43,606.38,56.91,0000 0000 0000 0000 000000
2018-09-11 11:45:22,-0.01,0.70,0.00,19.41,23.02,26.01,14.23,47.64,1021.01,2043.89,2992.98,2740.03,3137.03,600.08,606.04,56.96,0000 0000 0000 0000 000000
2018-09-11 11:50:23,0.00,0.70,0.00,19.39,23.02,26.02,14.19,47.63,1021.01,2043.87,2992.97,2740.01,3137.02,600.08,606.12,57.01,0000 0000 0000 0000 000000
2018-09-11 11:55:25,0.01,0.70,0.00,19.39,23.02,26.06,14.14,47.61,1021.01,2043.86,2992.86,2740.00,3137.00,599.64,605.61,57.06,0000 0000 0000 0000 000000
2018-09-11 12:00:26,-0.01,0.70,0.00,19.39,23.02,26.07,14.23,47.48,1021.01,2043.79,2992.68,2740.00,3137.00,600.45,606.54,57.11,0000 0000 0000 0000 000000
2018-09-11 12:05:27,-0.01,0.70,0.00,19.39,23.02,26.10,14.25,47.55,1021.01,2043.61,2992.06,2740.00,3136.98,600.56,606.58,57.16,0000 0000 0000 0000 000000
2018-09-11 12:10:28,-0.00,0.70,0.00,19.37,23.01,26.04,14.24,47.52,1021.01,2043.41,2992.00,2740.00,3136.95,600.34,606.38,57.21,0000 0000 0000 0000 000000
2018-09-11 12:15:30,0.01,0.70,0.00,19.35,23.01,26.08,14.27,47.52,1021.02,2043.44,2992.00,2739.98,3136.70,599.96,606.03,57.27,0000 0000 0000 0000 000000
2018-09-11 12:20:31,-0.01,0.70,0.00,19.35,23.00,26.07,14.15,47.51,1021.02,2043.33,2991.98,2739.96,3136.35,599.81,605.96,57.32,0000 0000 0000 0000 000000
2018-09-11 12:25:32,0.03,0.70,0.00,19.34,23.00,26.04,14.25,47.48,1021.02,2043.66,2991.97,2739.98,3136.33,600.36,606.48,57.37,0000 0000 0000 0000 000000
2018-09-11 12:30:33,-0.00,0.70,0.00,19.33,23.00,26.07,14.23,47.56,1021.03,2043.67,2991.90,2739.92,3136.07,599.80,605.92,57.42,0000 0000 0000 0000 000000
2018-09-11 12:35:34,0.02,0.70,0.00,19.32,22.99,26.07,14.18,47.60,1021.01,2043.68,2991.52,2739.78,3136.02,599.42,605.57,57.47,0000 0000 0000 0000 000000
2018-09-11 12:40:35,0.00,0.71,0.00,19.32,22.99,26.06,14.11,47.55,1021.03,2043.60,2991.09,2739.46,3136.00,599.70,605.76,57.52,0000 0000 0000 0000 000000
2018-09-11 12:45:36,0.00,0.70,0.00,19.30,22.99,26.03,14.17,47.48,1021.03,2043.37,2991.01,2739.07,3135.99,599.97,606.16,57.57,0000 0000 0000 0000 000000
2018-09-11 12:50:38,0.02,0.71,0.00,19.29,22.99,26.05,14.21,47.51,1021.02,2043.56,2991.00,2739.03,3135.98,599.62,605.89,57.62,0000 0000 0000 0000 000000
2018-09-11 12:55:39,-0.00,0.71,0.00,19.27,22.98,26.06,14.25,47.53,1021.02,2043.56,2990.98,2739.00,3135.94,600.09,606.37,57.67,0000 0000 0000 0000 000000